Lander, WY

7:27 AM MST on February 27, 2017 (GMT -0700)
South Pass

Weather History for KFWZ - April, 2014

Change the Weather History Date:

Wednesday, April 30, 2014

  Actual Average (KLND) Record (KLND)
Temperature  
Mean Temperature 32 °F -  
Max Temperature 37 °F 58 °F 80 °F (1987)
Min Temperature 26 °F 34 °F 6 °F (1909)
Degree Days  
Heating Degree Days 34    
Moisture  
Dew Point 17 °F    
Average Humidity 60    
Maximum Humidity 100    
Minimum Humidity 30    
Precipitation  
Precipitation 0.02 in - - ()
Sea Level Pressure  
Sea Level Pressure 30.31 in    
Wind  
Wind Speed 20 mph (North)    
Max Wind Speed 32 mph    
Max Gust Speed 46 mph    
Visibility 8 miles    
Events Snow    
Averages and records for this station are not official NWS values.
T = Trace of Precipitation, MM = Missing Value Source: NWS Daily Summary

Daily Weather History Graph

Daily Weather History Graph

Search for Another Location

Airport or City:

Trip Planner

Search our weather history database for the weather conditions in past years. The results will help you decide how hot, cold, wet, or windy it might be!

Date:

Astronomy

Apr. 30, 2014 Rise Set
Actual Time 6:11 AM MDT 8:14 PM MDT
Civil Twilight 5:40 AM MDT 8:44 PM MDT
Nautical Twilight 5:03 AM MDT 9:22 PM MDT
Astronomical Twilight 4:22 AM MDT 10:03 PM MDT
Moon 7:14 AM MDT (4/30) 9:57 PM MDT (4/30)
Length of Visible Light 15h 04m
Length of Day
14h 02m
Waxing Crescent, 3% of the Moon is Illuminated
Apr 30
Waxing Crescent
May 6
First Quarter
May 14
Full
May 21
Last Quarter
May 28
New

Hourly Weather History & Observations

Time (MDT) Temp. Windchill Dew Point Humidity Pressure Visibility Wind Dir Wind Speed Gust Speed Precip Events Conditions
12:15 AM 26.6 °F 11.1 °F 26.6 °F 100% - 0.8 mi North 26.5 mph 32.2 mph N/A Snow Snow
12:35 AM 26.6 °F 12.7 °F 26.6 °F 100% - 1.5 mi North 20.7 mph 31.1 mph N/A Snow Light Snow
12:55 AM 26.6 °F 13.4 °F 26.6 °F 100% - 2.0 mi North 18.4 mph 31.1 mph N/A Snow Light Snow
1:15 AM 26.6 °F 13.4 °F 26.6 °F 100% - 1.0 mi North 18.4 mph 27.6 mph N/A Snow Light Snow
1:35 AM 26.6 °F 12.7 °F 24.8 °F 93% - 1.5 mi North 20.7 mph 36.8 mph N/A Snow Light Snow
1:55 AM 26.6 °F 13.1 °F 24.8 °F 93% - - North 19.6 mph 31.1 mph N/A   Overcast
2:15 AM 26.6 °F 13.1 °F 24.8 °F 93% - - North 19.6 mph 27.6 mph N/A   Overcast
2:35 AM 26.6 °F 12.7 °F 24.8 °F 93% - - North 20.7 mph 26.5 mph N/A   Mostly Cloudy
2:55 AM 26.6 °F 13.8 °F 26.6 °F 100% 30.33 in - North 17.3 mph 26.5 mph N/A   Mostly Cloudy
3:15 AM 26.6 °F 13.1 °F 24.8 °F 93% - - NNW 19.6 mph 25.3 mph N/A   Overcast
3:35 AM 26.6 °F 14.3 °F 24.8 °F 93% - - NNW 16.1 mph 21.9 mph N/A   Unknown
3:55 AM 26.6 °F 11.7 °F 23.0 °F 86% - - NNW 24.2 mph 34.5 mph N/A   Mostly Cloudy
4:15 AM 26.6 °F 12.4 °F 23.0 °F 86% - - NNW 21.9 mph 29.9 mph N/A   Unknown
4:35 AM 26.6 °F 13.1 °F 23.0 °F 86% - - North 19.6 mph 26.5 mph N/A   Unknown
4:55 AM 26.6 °F 12.7 °F 23.0 °F 86% - - North 20.7 mph 29.9 mph N/A   Unknown
5:15 AM 26.6 °F 13.1 °F 23.0 °F 86% - - North 19.6 mph 26.5 mph N/A   Unknown
5:35 AM 26.6 °F 14.3 °F 24.8 °F 93% - - North 16.1 mph 24.2 mph N/A   Unknown
5:55 AM 26.6 °F 15.2 °F 23.0 °F 86% - - North 13.8 mph 26.5 mph N/A   Unknown
6:15 AM 26.6 °F 14.3 °F 23.0 °F 86% - - North 16.1 mph 26.5 mph N/A   Unknown
6:35 AM 26.6 °F 15.2 °F 24.8 °F 93% - - North 13.8 mph 20.7 mph N/A   Overcast
6:55 AM 26.6 °F 13.8 °F 23.0 °F 86% - - North 17.3 mph 23.0 mph N/A   Overcast
7:15 AM 26.6 °F 15.2 °F 23.0 °F 86% - - North 13.8 mph 23.0 mph N/A   Overcast
7:35 AM 26.6 °F 13.8 °F 23.0 °F 86% - - NNW 17.3 mph 24.2 mph N/A   Unknown
7:55 AM 28.4 °F 14.7 °F 19.4 °F 69% - - NNW 21.9 mph 33.4 mph N/A   Mostly Cloudy
8:15 AM 28.4 °F 13.8 °F 19.4 °F 69% 30.33 in - North 25.3 mph 34.5 mph N/A   Mostly Cloudy
8:35 AM 28.4 °F 15.1 °F 19.4 °F 69% 30.34 in - North 20.7 mph 32.2 mph N/A   Overcast
8:55 AM 28.4 °F 14.4 °F 19.4 °F 69% 30.33 in 4.0 mi North 23.0 mph 36.8 mph N/A   Haze
9:15 AM 28.4 °F 12.7 °F 17.6 °F 64% 30.32 in 4.0 mi North 29.9 mph 40.3 mph N/A   Haze
9:35 AM 28.4 °F 12.7 °F 17.6 °F 64% 30.31 in 1.5 mi North 29.9 mph 46.0 mph N/A Snow Light Snow
9:55 AM 28.4 °F 13.8 °F 17.6 °F 64% 30.32 in 5.0 mi North 25.3 mph 42.6 mph N/A   Haze
10:15 AM 30.2 °F 15.7 °F 17.6 °F 60% 30.33 in 5.0 mi North 27.6 mph 38.0 mph N/A   Haze
10:35 AM 30.2 °F 17.1 °F 17.6 °F 60% 30.34 in 7.0 mi North 21.9 mph 33.4 mph N/A   Mostly Cloudy
10:55 AM 32.0 °F 20.5 °F 17.6 °F 55% 30.34 in 10.0 mi North 18.4 mph 32.2 mph 0.01 in   Mostly Cloudy
11:15 AM 32.0 °F 19.2 °F 15.8 °F 51% 30.32 in 10.0 mi North 23.0 mph 33.4 mph 0.01 in   Overcast
11:35 AM 32.0 °F 19.5 °F 14.0 °F 48% 30.34 in 10.0 mi North 21.9 mph 38.0 mph 0.01 in   Overcast
11:55 AM 32.0 °F 18.1 °F 14.0 °F 48% 30.32 in 10.0 mi North 27.6 mph 39.1 mph 0.01 in   Overcast
12:15 PM 33.8 °F 20.8 °F 10.4 °F 38% 30.32 in 10.0 mi North 26.5 mph 34.5 mph N/A   Mostly Cloudy
12:35 PM 33.8 °F 22.8 °F 12.2 °F 41% 30.32 in 10.0 mi North 18.4 mph 38.0 mph N/A   Scattered Clouds
12:55 PM 35.6 °F 25.5 °F 14.0 °F 41% 30.32 in 10.0 mi North 17.3 mph 38.0 mph N/A   Scattered Clouds
1:15 PM 35.6 °F 24.8 °F 12.2 °F 38% 30.31 in 10.0 mi NNE 19.6 mph 33.4 mph N/A   Mostly Cloudy
1:35 PM 35.6 °F 24.0 °F 10.4 °F 35% 30.31 in 10.0 mi NNE 23.0 mph 32.2 mph N/A   Mostly Cloudy
1:55 PM 35.6 °F 24.2 °F 10.4 °F 35% 30.31 in 10.0 mi North 21.9 mph 34.5 mph N/A   Mostly Cloudy
2:15 PM 35.6 °F 24.5 °F 8.6 °F 33% 30.31 in 10.0 mi North 20.7 mph 36.8 mph N/A   Scattered Clouds
2:35 PM 35.6 °F 22.1 °F 8.6 °F 33% 30.30 in 10.0 mi North 32.2 mph 42.6 mph N/A   Scattered Clouds
2:55 PM 37.4 °F 27.2 °F 10.4 °F 33% 30.31 in 10.0 mi North 19.6 mph 33.4 mph N/A   Scattered Clouds
3:15 PM 37.4 °F 28.2 °F 10.4 °F 33% 30.31 in 10.0 mi North 16.1 mph 32.2 mph N/A   Scattered Clouds
3:35 PM 35.6 °F 26.2 °F 8.6 °F 33% 30.31 in 10.0 mi North 15.0 mph 32.2 mph N/A   Clear
3:55 PM 35.6 °F 25.2 °F 10.4 °F 35% 30.31 in 10.0 mi NNE 18.4 mph 28.8 mph N/A   Scattered Clouds
4:15 PM 37.4 °F 26.6 °F 8.6 °F 30% 30.30 in 10.0 mi NNE 21.9 mph 31.1 mph N/A   Scattered Clouds
4:35 PM 35.6 °F 25.5 °F 10.4 °F 35% 30.31 in 10.0 mi NNE 17.3 mph 27.6 mph N/A   Clear
4:55 PM 35.6 °F 26.6 °F 12.2 °F 38% 30.31 in 10.0 mi NNE 13.8 mph 27.6 mph N/A   Scattered Clouds
5:15 PM 37.4 °F 26.9 °F 10.4 °F 33% 30.31 in 10.0 mi North 20.7 mph 31.1 mph N/A   Scattered Clouds
5:35 PM 37.4 °F 28.2 °F 10.4 °F 33% 30.31 in 10.0 mi NNE 16.1 mph 28.8 mph N/A   Clear
5:55 PM 37.4 °F 27.8 °F 10.4 °F 33% 30.31 in 10.0 mi North 17.3 mph 26.5 mph N/A   Clear
6:15 PM 35.6 °F 24.0 °F 10.4 °F 35% 30.31 in 10.0 mi North 23.0 mph 29.9 mph N/A   Clear
6:35 PM 35.6 °F 26.2 °F 10.4 °F 35% 30.31 in 10.0 mi North 15.0 mph 26.5 mph N/A   Clear
6:55 PM 35.6 °F 25.5 °F 10.4 °F 35% 30.30 in 10.0 mi North 17.3 mph 29.9 mph N/A   Clear
7:15 PM 35.6 °F 25.2 °F 10.4 °F 35% 30.30 in 10.0 mi North 18.4 mph 26.5 mph N/A   Clear
7:35 PM 33.8 °F 23.5 °F 12.2 °F 41% 30.30 in 10.0 mi North 16.1 mph 20.7 mph N/A   Clear
8:15 PM 32.0 °F 20.1 °F 12.2 °F 44% 30.30 in 10.0 mi North 19.6 mph 26.5 mph N/A   Clear
8:35 PM 32.0 °F 22.1 °F 12.2 °F 44% 30.29 in 10.0 mi North 13.8 mph 20.7 mph N/A   Clear
8:55 PM 32.0 °F 20.5 °F 12.2 °F 44% 30.29 in 10.0 mi North 18.4 mph 32.2 mph N/A   Clear
9:15 PM 32.0 °F 20.1 °F 12.2 °F 44% 30.30 in 10.0 mi North 19.6 mph 26.5 mph N/A   Clear
9:35 PM 32.0 °F 21.2 °F 12.2 °F 44% 30.31 in 10.0 mi North 16.1 mph - N/A   Clear
9:55 PM 32.0 °F 22.5 °F 12.2 °F 44% 30.32 in 10.0 mi North 12.7 mph - N/A   Clear
10:15 PM 32.0 °F 20.5 °F 12.2 °F 44% 30.32 in 10.0 mi North 18.4 mph - N/A   Clear
10:35 PM 32.0 °F 20.5 °F 12.2 °F 44% 30.31 in 10.0 mi North 18.4 mph 23.0 mph N/A   Clear
10:55 PM 32.0 °F 20.8 °F 12.2 °F 44% 30.30 in 10.0 mi North 17.3 mph 23.0 mph N/A   Clear
11:15 PM 32.0 °F 20.8 °F 12.2 °F 44% 30.30 in 10.0 mi North 17.3 mph 21.9 mph N/A   Clear
11:35 PM 32.0 °F 21.2 °F 12.2 °F 44% 30.30 in 10.0 mi North 16.1 mph - N/A   Clear
11:55 PM 30.2 °F 18.9 °F 12.2 °F 47% 30.30 in 10.0 mi NNW 16.1 mph 21.9 mph N/A   Clear